Tracking 33200 objects as of 17-Feb-2026
HD Live streaming from Space Station
objects crossing your sky now

NOAA 17 DEB

Track NOAA 17 DEB now!
10-day predictions


NORAD ID: 48178
Int'l Code: 2002-032U
Perigee: 719.8 km
Apogee: 731.3 km
Inclination: 98.9 °
Period: 99.2 minutes
Semi major axis: 7096 km
RCS: Unknown
Launch date: June 24, 2002
Source: United States (US)
Launch site: AIR FORCE WESTERN TEST RANGE (AFWTR)

Note: This is SATELLITE DEBRIS
Your satellite tracking list
Your tracking list is empty




NASA's NSSDC Master Catalog

Two Line Element Set (TLE):
1 48178U 02032T   26047.47768475  .00008381  00000-0  20742-2 0  9999
2 48178  98.8652  56.9815 0008048 251.7488 108.2830 14.52218653256469
Source of the keplerian elements: AFSPC